Regional Weather Roundup
Issued by NWS Green Bay, WI

Home | Current Version | Previous Version | Graphics & Text | Print | Product List | Glossary Off
Versions: 1 2 3 4 5 6 7 8 9 10 11 12 13 14 15 16 17 18 19 20 21 22 23 24 25 26 27 28 29 30 31 32 33 34 35 36 37 38 39 40 41 42 43 44 45 46 47 48 49 50

000
ASUS43 KGRB 060900
RWRGRB

NORTH-CENTRAL AND NORTHEAST WISCONSIN REGIONAL WEATHER ROUNDUP
NATIONAL WEATHER SERVICE GREEN BAY WI
400 AM CDT FRI MAY 06 2016

WIZ005-009-010>012-018-019-061000-
NORTH CENTRAL WISCONSIN

CITY           SKY/WX    TMP DP  RH WIND       PRES   REMARKS
IRONWOOD       CLEAR     57  39  51 SW8       29.77S
MANITOWISH WTR NOT AVBL
ARBOR VITAE    NOT AVBL
EAGLE RIVER    NOT AVBL
LAND O LAKES   NOT AVBL
RHINELANDER    PTCLDY    54  37  52 SW7       29.86F
PHILLIPS       CLEAR     52  38  57 S6        29.83F
ANTIGO         NOT AVBL
TOMAHAWK       NOT AVBL
MERRILL        NOT AVBL
$$

WIZ013-073-061000-
NORTHEAST WISCONSIN

CITY           SKY/WX    TMP DP  RH WIND       PRES   REMARKS
IRON MOUNTAIN  CLOUDY    46  40  79 CALM      29.84F
MARINETTE      CLOUDY    48  45  87 SE6       29.89S
$$

WIZ017-030-035>037-045-061000-
CENTRAL WISCONSIN

CITY           SKY/WX    TMP DP  RH WIND       PRES   REMARKS
MEDFORD        NOT AVBL
WAUSAU         CLEAR     53  42  66 CALM      29.86F
MOSINEE        NOT AVBL
MARSHFIELD     CLEAR     51  38  60 SW3       29.87F
WISC RAPIDS    MOCLDY    50  38  63 SW5       29.90F
STEVENS POINT  NOT AVBL
WAUPACA        NOT AVBL
SHAWANO        NOT AVBL
CLINTONVILLE   NOT AVBL
WAUTOMA        NOT AVBL
$$

WIZ038-039-048-051-061000-
FOX VALLEY

CITY           SKY/WX    TMP DP  RH WIND       PRES   REMARKS
NWS GREEN BAY  PTCLDY    48  43  82 S7        29.90S
APPLETON       NOT AVBL
OSHKOSH        CLOUDY    50  36  58 S3        29.91F
FOND DU LAC    PTCLDY    47  39  74 S5        29.92F
$$

WIZ022-050-052-061000-
EAST CENTRAL WISCONSIN

CITY           SKY/WX    TMP DP  RH WIND       PRES   REMARKS
EPHRAIM        NOT AVBL
STURGEON BAY   CLEAR     48  37  66 S6        29.91F
MANITOWOC      NOT AVBL
SHEBOYGAN      CLOUDY    50  41  71 SW3       29.93R
$$

LMZ563-521-522-541>543-061000-
LAKESHORE

STATION/POSITION TIME  TEMP    WIND        PRES    VSBY  WAVE
                       AIR SEA DIR/SP/G                  HT/PER
                 (UTC) (F)     (DEG/KT/KT) (MB)    (MI)  (FT/S)
SHEBOYGAN LKSHOR 0800   50     220/  8/  9 1013.7F
KEWAUNEE LKSHORE 0800   47     160/  7/  7 1012.1F
ALGOMA MARINA    0815          220/  9/ 10   N/A
NORTHPORT PIER   0800   48     180/  4/  8 1012.2S
N MID LAKE BUOY  0750   41 39  190/  8/ 10 1012.8F         0
CHAMBERS ISLAND  0800   51     180/  5/ 11 1012.2S
MENOMINEE LKSHOR 0800   50     180/ 10/ 12 1011.0F
$$




USA.gov is the U.S. government's official web portal to all federal, state and local government web resources and services.